• Join FlightAware (Why Join?)
  • Login
  • US Flag 
09:15AM EDT


 

Airport Tracker/Info


-or-


 

Live Flight TrackerFlight Track Log ✈ UAL33 ✈ 24-Apr-2013 ✈ KLAX - KJFK

Flight Track Log - Related Links

Times and Time Zones

All times are in EDT time to prevent confusion due to time zone crossing. See the UAL33 flight status page for this flight to view local times or setup timezone preferences in your user account.

Time Position Orientation Groundspeed Altitude Reporting Facility
EDT Latitude Longitude Course Direction KTS MPH feet Rate Location/Type
03:21PM 33.9356 -118.4331 51° Northeast 174 200 1,500  Level Los Angeles Center
03:22PM 33.9192 -118.5128 256° West 227 261 4,100 2,460 Climbing Los Angeles Center
03:23PM 34.1387 -118.0559 59° Northeast  Level FlightAware Approximate
03:23PM 33.8625 -118.5528 210° Southwest 264 304 6,600  Level Los Angeles Center
03:24PM 34.2082 -117.9171 59° Northeast  Level FlightAware Approximate
03:24PM 33.8425 -118.4753 107° East 281 323 9,700  Level Los Angeles Center
03:25PM 34.2833 -117.7968 90° East  Level FlightAware Approximate
03:25PM 33.9178 -118.4383 22° Northeast 309 356 11,600  Level Los Angeles Center
03:26PM 34.3537 -117.6612 51° Northeast  Level FlightAware Approximate
03:26PM 33.9800 -118.3528 49° Northeast 339 390 14,000  Level Los Angeles Center
03:27PM 34.0375 -118.2486 56° Northeast 366 421 16,600 2,400 Climbing Los Angeles Center
03:28PM 34.0981 -118.1408 56° Northeast 382 440 19,000 2,160 Climbing Los Angeles Center
03:29PM 34.1617 -118.0289 56° Northeast 400 460 21,100 1,920 Climbing Los Angeles Center
03:30PM 34.2422 -117.8856 56° Northeast 425 489 23,000 1,020 Climbing Los Angeles Center
03:31PM 34.3117 -117.7606 56° Northeast 443 510 23,300 1,080 Climbing Los Angeles Center
03:32PM 34.3814 -117.6372 56° Northeast 445 512 25,300 1,980 Climbing Los Angeles Center
03:33PM 34.4547 -117.5033 56° Northeast 452 520 27,400 1,800 Climbing Los Angeles Center
03:34PM 34.5367 -117.3858 50° Northeast 460 529 29,100 1,500 Climbing Los Angeles Center
03:35PM 34.6222 -117.2681 49° Northeast 467 537 30,600 1,500 Climbing Los Angeles Center
03:36PM 34.7061 -117.1475 50° Northeast 471 542 32,300 1,800 Climbing Los Angeles Center
03:37PM 34.8058 -117.0031 50° Northeast 468 539 34,400 1,620 Climbing Los Angeles Center
03:38PM 34.8889 -116.8825 50° Northeast 467 537 35,700 1,020 Climbing Los Angeles Center
03:40PM 34.9733 -116.7619 49° Northeast 472 543 36,600 600 Climbing Los Angeles Center
03:41PM 35.0594 -116.6369 50° Northeast 479 551 37,000 180 Climbing Los Angeles Center
03:42PM 35.1458 -116.5125 50° Northeast 483 556 37,000  Level Los Angeles Center
03:43PM 35.2503 -116.3689 48° Northeast 474 545 37,000  Level Los Angeles Center
03:44PM 35.3333 -116.2483 50° Northeast 467 537 37,000  Level Los Angeles Center
03:45PM 35.4158 -116.1264 50° Northeast 465 535 37,000  Level Los Angeles Center
03:46PM 35.5014 -116.0053 49° Northeast 471 542 37,000  Level Los Angeles Center
03:47PM 35.5933 -115.8739 49° Northeast 474 545 37,000  Level Los Angeles Center
03:48PM 35.6783 -115.7497 50° Northeast 477 549 37,000  Level Los Angeles Center
03:49PM 35.7642 -115.6244 50° Northeast 481 554 37,000  Level Los Angeles Center
03:50PM 35.8672 -115.4742 50° Northeast 482 555 37,000  Level Los Angeles Center
03:51PM 35.9531 -115.3475 50° Northeast 486 559 37,000  Level Los Angeles Center
03:52PM 36.0378 -115.2225 50° Northeast 480 552 37,000  Level Los Angeles Center
03:53PM 36.1069 -115.0811 59° Northeast 485 558 37,000  Level Los Angeles Center
03:54PM 36.1533 -114.9242 70° East 489 563 37,000  Level Los Angeles Center
03:55PM 36.2097 -114.7356 70° East 490 564 37,000  Level Los Angeles Center
03:56PM 36.2575 -114.5783 69° East 490 564 37,000  Level Los Angeles Center
03:57PM 36.3067 -114.4206 69° East 492 566 37,000  Level Los Angeles Center
03:58PM 36.3536 -114.2617 70° East 492 566 37,000  Level Los Angeles Center
03:59PM 36.4014 -114.1036 69° East 491 565 37,000  Level Los Angeles Center
04:00PM 36.4581 -113.9117 70° East 494 568 37,000  Level Los Angeles Center
04:01PM 36.5081 -113.7444 70° East 494 568 37,000  Level Los Angeles Center
04:02PM 36.5553 -113.5836 70° East 497 572 37,000  Level Los Angeles Center
04:03PM 36.6025 -113.4228 70° East 498 573 37,000  Level Los Angeles Center
04:04PM 36.6500 -113.2608 70° East 500 575 37,000  Level Los Angeles Center
04:06PM 36.7029 -113.0756 70° East  Level FlightAware Approximate
04:06PM 36.7436 -112.9344 70° East 503 579 37,000  Level Los Angeles Center
04:07PM 36.8006 -112.7378 70° East 506 582 37,000  Level Los Angeles Center
04:09PM 36.8461 -112.5725 71° East 507 583 37,000  Level Los Angeles Center
04:10PM 36.8933 -112.4072 70° East 509 586 37,000  Level Los Angeles Center
04:11PM 36.9392 -112.2417 71° East 508 585 37,000  Level Los Angeles Center
04:12PM 37.0036 -112.0072 71° East 510 587 37,000  Level Los Angeles Center
04:12PM 37.0150 -111.9725 68° East 512 589 37,000  Level Denver Center
04:13PM 37.0619 -111.8039 71° East 515 593 37,000  Level Denver Center
04:14PM 37.1078 -111.6353 71° East 515 593 37,000  Level Denver Center
04:15PM 37.1533 -111.4656 71° East 516 594 37,000  Level Denver Center
04:16PM 37.2094 -111.2606 71° East 520 598 37,000  Level Denver Center
04:17PM 37.2553 -111.0897 71° East 520 598 37,000  Level Denver Center
04:18PM 37.3006 -110.9192 71° East 518 596 37,000  Level Denver Center
04:19PM 37.3464 -110.7464 71° East 523 602 37,000  Level Denver Center
04:20PM 37.3914 -110.5750 72° East 520 598 37,000  Level Denver Center
04:21PM 37.4369 -110.4017 72° East 521 600 37,000  Level Denver Center
04:23PM 37.4892 -110.1953 72° East 520 598 37,000  Level Denver Center
04:24PM 37.5450 -109.9797 72° East 524 603 37,000  Level Denver Center
04:25PM 37.5878 -109.8139 72° East 520 598 37,000  Level Denver Center
04:26PM 37.6311 -109.6461 72° East 523 602 37,000  Level Denver Center
04:27PM 37.6794 -109.4503 73° East 525 604 37,000  Level Denver Center
04:28PM 37.7219 -109.2822 72° East 525 604 37,000  Level Denver Center
04:29PM 37.7708 -109.0833 73° East 530 610 37,000  Level Denver Center
04:30PM 37.8128 -108.9119 73° East 531 611 37,000  Level Denver Center
04:31PM 37.8561 -108.7108 75° East 531 611 37,000  Level Denver Center
04:32PM 37.8919 -108.5375 75° East 532 612 37,000  Level Denver Center
04:33PM 37.9406 -108.3081 75° East 530 610 37,000  Level Denver Center
04:34PM 37.9894 -108.0761 75° East 533 613 37,000  Level Denver Center
04:35PM 38.0250 -107.9014 75° East 534 615 37,000  Level Denver Center
04:37PM 38.0614 -107.7272 75° East 534 615 37,000  Level Denver Center
04:38PM 38.1094 -107.4867 76° East 534 615 37,000  Level Denver Center
04:39PM 38.1447 -107.3108 76° East 537 618 37,000  Level Denver Center
04:40PM 38.1797 -107.1328 76° East 538 619 37,000  Level Denver Center
04:41PM 38.2236 -106.9125 76° East 537 618 37,000  Level Denver Center
04:42PM 38.2603 -106.7225 76° East 540 621 37,000  Level Denver Center
04:43PM 38.2947 -106.5436 76° East 543 625 37,000  Level Denver Center
04:44PM 38.3308 -106.3539 76° East 542 624 37,000  Level Denver Center
04:45PM 38.3672 -106.1681 76° East 543 625 37,000  Level Denver Center
04:46PM 38.4017 -105.9800 77° East 545 627 37,000  Level Denver Center
04:47PM 38.4386 -105.7831 76° East 544 626 37,000  Level Denver Center
04:48PM 38.4786 -105.5631 77° East 544 626 37,000  Level Denver Center
04:49PM 38.5142 -105.3747 76° East 543 625 37,000  Level Denver Center
04:50PM 38.5483 -105.1850 77° East 544 626 37,000  Level Denver Center
04:51PM 38.5822 -104.9956 77° East 544 626 37,000  Level Denver Center
04:52PM 38.6158 -104.8039 77° East 550 633 37,000  Level Denver Center
04:53PM 38.6497 -104.6106 77° East 554 638 37,000  Level Denver Center
04:54PM 38.6833 -104.4178 77° East 555 639 37,000  Level Denver Center
04:55PM 38.7217 -104.1936 78° East 552 635 37,000  Level Denver Center
04:56PM 38.7547 -104.0025 77° East 549 632 37,000  Level Denver Center
04:57PM 38.7883 -103.8083 77° East 553 636 37,000  Level Denver Center
04:58PM 38.8158 -103.6164 80° East 549 632 37,000  Level Denver Center
04:59PM 38.8233 -103.4169 87° East 554 638 37,000  Level Denver Center
05:00PM 38.8281 -103.2164 88° East 559 643 37,000  Level Denver Center
05:01PM 38.8319 -103.0153 89° East 560 644 37,000  Level Denver Center
05:02PM 38.8358 -102.7814 89° East 559 643 37,000  Level Denver Center
05:03PM 38.8381 -102.5922 89° East 561 646 37,000  Level Denver Center
05:04PM 38.8431 -102.3692 88° East 562 647 37,000  Level Denver Center
05:06PM 38.8453 -102.1767 89° East 563 648 37,000  Level Denver Center
05:07PM 38.8467 -101.9853 89° East 562 647 37,000  Level Denver Center
05:08PM 38.8497 -101.7603 89° East 563 648 37,000  Level Denver Center
05:09PM 38.8508 -101.5700 90° East 558 642 37,000  Level Denver Center
05:10PM 38.8533 -101.3461 89° East 559 643 37,000  Level Denver Center
05:11PM 38.8544 -101.1553 90° East 558 642 37,000  Level Denver Center
05:12PM 38.8544 -100.9308 90° East 563 648 37,000  Level Denver Center
05:13PM 38.8550 -100.7414 90° East 556 640 37,000  Level Denver Center
05:14PM 38.8558 -100.5503 90° East 558 642 37,000  Level Denver Center
05:15PM 38.8553 -100.3294 90° East 554 638 37,000  Level Denver Center
05:16PM 38.8539 -100.1406 90° East 552 635 37,000  Level Denver Center
05:17PM 38.8536 -99.9186 90° East 554 638 37,000  Level Denver Center
05:18PM 38.8528 -99.7300 90° East 553 636 37,000  Level Denver Center
05:19PM 38.8494 -99.5089 91° East 554 638 37,000  Level Denver Center
05:20PM 38.8483 -99.3206 90° East 553 636 37,000  Level Denver Center
05:21PM 38.8531 -99.1464 88° East 556 640 37,000  Level Kansas City Center
05:22PM 38.8644 -98.9486 86° East 555 639 37,000  Level Kansas City Center
05:23PM 38.8744 -98.7497 86° East 558 642 37,000  Level Kansas City Center
05:24PM 38.8858 -98.5106 86° East 559 643 37,000  Level Kansas City Center
05:25PM 38.8956 -98.3114 86° East 557 641 37,000  Level Kansas City Center
05:26PM 38.9042 -98.1119 87° East 557 641 37,000  Level Kansas City Center
05:27PM 38.9136 -97.9111 86° East 561 646 37,000  Level Kansas City Center
05:28PM 38.9225 -97.7031 87° East 558 642 37,000  Level Kansas City Center
05:29PM 38.9436 -97.4886 83° East 558 642 37,000  Level Kansas City Center
05:30PM 38.9669 -97.3167 80° East 556 640 37,000  Level Kansas City Center
05:31PM 38.9989 -97.0789 80° East 551 634 37,000  Level Kansas City Center
05:32PM 39.0242 -96.8925 80° East 552 635 37,000  Level Kansas City Center
05:33PM 39.0531 -96.6731 80° East 556 640 37,000  Level Kansas City Center
05:34PM 39.0772 -96.4850 81° East 556 640 37,000  Level Kansas City Center
05:35PM 39.0992 -96.2975 81° East 555 639 37,000  Level Kansas City Center
05:36PM 39.1269 -96.0783 81° East 556 640 37,000  Level Kansas City Center
05:37PM 39.1500 -95.8900 81° East 556 640 37,000  Level Kansas City Center
05:39PM 39.1772 -95.6703 81° East 560 644 37,000  Level Kansas City Center
05:40PM 39.1992 -95.4833 81° East 552 635 37,000  Level Kansas City Center
05:41PM 39.2258 -95.2550 81° East 554 638 37,000  Level Kansas City Center
05:42PM 39.2475 -95.0617 82° East 552 635 37,000  Level Kansas City Center
05:43PM 39.2689 -94.8761 81° East 550 633 37,000  Level Kansas City Center
05:44PM 39.2931 -94.6603 82° East 545 627 37,000  Level Kansas City Center
05:45PM 39.3200 -94.4736 79° East 549 632 37,000  Level Kansas City Center
05:46PM 39.3483 -94.2556 80° East 551 634 37,000  Level Kansas City Center
05:47PM 39.3719 -94.0689 81° East 549 632 37,000  Level Kansas City Center
05:48PM 39.3992 -93.8511 81° East 549 632 37,000  Level Kansas City Center
05:49PM 39.4217 -93.6867 80° East 552 635 37,000  Level Kansas City Center
05:50PM 39.4500 -93.4550 81° East 549 632 37,000  Level Kansas City Center
05:51PM 39.4728 -93.2617 81° East 550 633 37,000  Level Kansas City Center
05:52PM 39.4961 -93.0686 81° East 550 633 37,000  Level Kansas City Center
05:53PM 39.5172 -92.8700 82° East 559 643 37,000  Level Kansas City Center
05:54PM 39.5433 -92.6411 82° East 548 631 37,000  Level Kansas City Center
05:55PM 39.5653 -92.4478 82° East 548 631 37,000  Level Kansas City Center
05:56PM 39.5864 -92.2578 82° East 546 628 37,000  Level Kansas City Center
05:57PM 39.6072 -92.0661 82° East 545 627 37,000  Level Kansas City Center
05:58PM 39.6286 -91.8714 82° East 546 628 37,000  Level Kansas City Center
05:59PM 39.6514 -91.6392 83° East 550 633 37,000  Level Kansas City Center
06:00PM 39.6725 -91.4458 82° East 547 629 37,000  Level Kansas City Center
06:01PM 39.6925 -91.2411 83° East 549 632 37,000  Level Kansas City Center
06:02PM 39.7133 -91.0433 82° East 551 634 37,000  Level Kansas City Center
06:03PM 39.7325 -90.8461 83° East 551 634 37,000  Level Kansas City Center
06:04PM 39.7525 -90.6289 83° East 550 633 37,000  Level Kansas City Center
06:05PM 39.7711 -90.4319 83° East 553 636 37,000  Level Kansas City Center
06:06PM 39.7897 -90.2347 83° East 552 635 37,000  Level Kansas City Center
06:07PM 39.8081 -90.0369 83° East 554 638 37,000  Level Kansas City Center
06:08PM 39.8283 -89.8008 84° East 553 636 37,000  Level Kansas City Center
06:10PM 39.8394 -89.6036 86° East 550 633 37,000  Level Kansas City Center
06:11PM 39.8419 -89.4061 89° East 552 635 37,000  Level Kansas City Center
06:12PM 39.8414 -89.2103 90° East 547 629 37,000  Level Kansas City Center
06:13PM 39.8417 -89.0139 90° East 545 627 37,000  Level Kansas City Center
06:14PM 39.8419 -88.8169 90° East 547 629 37,000  Level Kansas City Center
06:15PM 39.8422 -88.5811 90° East 546 628 37,000  Level Kansas City Center
06:16PM 39.8431 -88.3842 90° East 546 628 37,000  Level Kansas City Center
06:17PM 39.8431 -88.1706 90° East 548 631 37,000  Level Kansas City Center
06:17PM 39.8383 -88.0958 95° East 545 627 37,000  Level Indianapolis Center
06:18PM 39.8375 -87.8983 90° East 544 626 37,000  Level Indianapolis Center
06:19PM 39.8372 -87.7022 90° East 542 624 37,000  Level Indianapolis Center
06:20PM 39.8650 -87.5053 80° East 547 629 37,000  Level Indianapolis Center
06:21PM 39.9119 -87.2461 77° East 548 631 37,000  Level Indianapolis Center
06:23PM 39.9478 -87.0517 76° East 549 632 37,000  Level Indianapolis Center
06:24PM 39.9831 -86.8553 77° East 551 634 37,000  Level Indianapolis Center
06:25PM 40.0181 -86.6583 77° East 552 635 37,000  Level Indianapolis Center
06:26PM 40.0547 -86.4608 76° East 551 634 37,000  Level Indianapolis Center
06:26PM 40.0775 -86.3303 77° East 549 632 37,000  Level Chicago Center
06:27PM 40.1178 -86.1003 77° East 550 633 37,000  Level Chicago Center
06:28PM 40.1231 -86.0656 79° East 549 632 37,000  Level Indianapolis Center
06:28PM 40.1514 -85.9036 77° East 548 631 37,000  Level Chicago Center
06:29PM 40.1844 -85.7058 78° East 551 634 37,000  Level Chicago Center
06:31PM 40.2194 -85.5100 77° East 547 629 37,000  Level Chicago Center
06:32PM 40.2625 -85.3186 74° East 550 633 37,000  Level Chicago Center
06:32PM 40.2833 -85.2581 66° East 544 626 37,000  Level Indianapolis Center
06:33PM 40.3481 -85.0744 65° Northeast 550 633 37,000  Level Indianapolis Center
06:34PM 40.4097 -84.8925 66° East 545 627 37,000  Level Indianapolis Center
06:35PM 40.4781 -84.6933 66° East 545 627 37,000  Level Indianapolis Center
06:36PM 40.5400 -84.5103 66° East 543 625 37,000  Level Indianapolis Center
06:37PM 40.6011 -84.3261 66° East 544 626 37,000  Level Indianapolis Center
06:38PM 40.6625 -84.1428 66° East 542 624 37,000  Level Indianapolis Center
06:39PM 40.7231 -83.9594 66° East 540 621 37,000  Level Indianapolis Center
06:40PM 40.7844 -83.7750 66° East 541 623 37,000  Level Indianapolis Center
06:41PM 40.8447 -83.5914 66° East 539 620 37,000  Level Indianapolis Center
06:42PM 40.9100 -83.3883 67° East 541 623 37,000  Level Indianapolis Center
06:43PM 40.9692 -83.2053 67° East 538 619 37,000  Level Indianapolis Center
06:44PM 41.0289 -83.0197 67° East 543 625 37,000  Level Indianapolis Center
06:45PM 41.0881 -82.7981 70° East 534 615 37,000  Level Cleveland Center
06:46PM 41.1250 -82.6036 76° East 534 615 37,000  Level Cleveland Center
06:47PM 41.1594 -82.4144 76° East 529 609 37,000  Level Cleveland Center
06:48PM 41.1936 -82.2222 77° East 529 609 37,000  Level Cleveland Center
06:49PM 41.2275 -82.0297 77° East 524 603 37,000  Level Cleveland Center
06:50PM 41.2608 -81.8428 77° East 524 603 37,000  Level Cleveland Center
06:51PM 41.2919 -81.6525 78° East 524 603 37,000  Level Cleveland Center
06:52PM 41.3250 -81.4622 77° East 524 603 37,000  Level Cleveland Center
06:53PM 41.3533 -81.2719 79° East 524 603 37,000  Level Cleveland Center
06:54PM 41.3836 -81.0839 78° East 524 603 37,000  Level Cleveland Center
06:55PM 41.4156 -80.8933 77° East 524 603 37,000  Level Cleveland Center
06:56PM 41.4472 -80.7022 77° East 524 603 37,000  Level Cleveland Center
06:57PM 41.4764 -80.5111 78° East 524 603 37,000  Level Cleveland Center
06:59PM 41.5024 -80.2988 81° East  Level FlightAware Approximate
06:59PM 41.5339 -80.1561 81° East 524 603 37,000  Level Cleveland Center
07:00PM 41.5642 -79.9478 79° East 519 597 37,000  Level Cleveland Center
07:01PM 41.5922 -79.7614 79° East 519 597 37,000  Level Cleveland Center
07:02PM 41.6200 -79.5750 79° East 519 597 37,000  Level Cleveland Center
07:03PM 41.6494 -79.3883 78° East 514 592 37,000  Level Cleveland Center
07:04PM 41.6744 -79.2014 80° East 509 586 37,000  Level Cleveland Center
07:05PM 41.6783 -79.0153 88° East 502 578 37,000  Level Cleveland Center
07:06PM 41.6778 -78.8289 90° East 496 571 37,000  Level Cleveland Center
07:07PM 41.6850 -78.6425 87° East 496 571 37,000  Level Cleveland Center
07:08PM 41.6861 -78.4589 89° East 496 571 37,000  Level Cleveland Center
07:09PM 41.6844 -78.2725 91° East 496 571 37,000  Level Cleveland Center
07:11PM 41.6864 -78.0069 89° East 502 578 37,000  Level New York Center
07:12PM 41.6831 -77.8178 91° East 502 578 37,000  Level New York Center
07:13PM 41.6842 -77.6233 89° East 512 589 37,000  Level New York Center
07:14PM 41.6822 -77.4342 91° East 517 595 37,000  Level New York Center
07:15PM 41.6800 -77.2478 91° East 517 595 37,000  Level New York Center
07:16PM 41.6586 -77.0681 99° East 504 580 37,000  Level New York Center
07:17PM 41.6142 -76.9194 112° Southeast 480 552 37,000  Level New York Center
07:18PM 41.5725 -76.7603 109° East 475 547 37,000  Level New York Center
07:19PM 41.5247 -76.5897 110° East 454 522 37,000 -480 Level New York Center
07:20PM 41.4842 -76.4367 109° East 440 506 36,100 -780 Descending New York Center
07:21PM 41.4414 -76.2836 110° East 440 506 35,500 -1,020 Descending New York Center
07:22PM 41.4019 -76.1422 110° East 440 506 34,100 -1,200 Descending New York Center
07:23PM 41.3586 -75.9922 111° Southeast 440 506 33,100 -1,980 Descending New York Center
07:24PM 41.3150 -75.8453 112° Southeast 429 494 30,200 -5,040 Descending New York Center
07:25PM 41.2678 -75.6814 111° Southeast 444 511 23,000 -2,220 Descending New York Center
07:26PM 41.2181 -75.5233 113° Southeast 460 529 25,800 240 Climbing New York Center
07:27PM 41.1656 -75.3736 115° Southeast 460 529 23,600 -1,440 Descending New York Center
07:28PM 41.1153 -75.2217 114° Southeast 453 521 23,000 -300 Descending New York Center
07:29PM 41.0722 -75.0922 114° Southeast 424 488 23,000  Level New York Center
07:30PM 41.0286 -74.9711 115° Southeast 387 445 23,000  Level New York Center
07:31PM 40.9933 -74.8453 110° East 363 418 23,000 -600 Level New York Center
07:32PM 40.9772 -74.7094 99° East 363 418 21,900 -840 Descending New York Center
07:33PM 40.9647 -74.5797 97° East 363 418 21,400 -900 Descending New York Center
07:34PM 40.9519 -74.4553 98° East 348 400 20,100 -1,200 Descending New York Center
07:35PM 40.9369 -74.3392 100° East 333 383 19,000 -600 Descending New York Center
07:36PM 40.9219 -74.2067 98° East 328 377 19,000  Level New York Center
07:37PM 40.8897 -74.1033 112° Southeast 316 364 19,000  Level New York Center
07:38PM 40.8233 -74.0947 174° South 224 258 19,000  Level New York Center
07:39PM 40.7978 -74.1839 249° West 167 192 19,000  Level New York Center
07:40PM 40.8306 -74.2733 296° West 216 249 19,000  Level New York Center
07:41PM 40.8656 -74.3519 301° West 263 303 19,000  Level New York Center
07:42PM 40.9214 -74.4372 311° West 283 326 19,000  Level New York Center
07:43PM 41.0031 -74.4197 North 274 315 19,000  Level New York Center
07:44PM 41.0281 -74.2889 76° East 261 300 19,000  Level New York Center
07:45PM 40.9697 -74.2144 136° Southeast 273 314 19,000  Level New York Center
07:46PM 40.8883 -74.1444 147° Southeast 288 331 19,000  Level New York Center
07:47PM 40.8103 -74.1078 160° South 304 350 19,000  Level New York Center
07:48PM 40.7833 -74.1833 245° Southwest 299 344 19,000  Level New York TRACON
07:49PM 40.8167 -74.3000 291° West 307 353 19,000  Level New York TRACON
07:50PM 40.8500 -74.4000 294° West 316 364 19,000  Level New York TRACON
07:51PM 40.9167 -74.4667 323° Northwest 344 396 19,000  Level New York TRACON
07:52PM 41.0000 -74.5167 336° Northwest 356 410 19,000  Level New York TRACON
07:53PM 41.1094 -74.4806 14° North 354 407 19,000  Level New York Center
07:54PM 41.1550 -74.3561 64° Northeast 319 367 19,000  Level New York Center
07:55PM 41.1208 -74.2469 113° Southeast 284 327 19,000  Level New York Center
07:56PM 41.0333 -74.2000 158° South 308 354 19,000  Level New York TRACON
07:57PM 40.9667 -74.1500 150° Southeast 309 356 19,000  Level New York TRACON
07:58PM 40.9000 -74.0833 143° Southeast 338 389 19,000 -840 Level New York TRACON
08:00PM 40.8333 -73.8333 109° East 354 407 16,600 -1,200 Descending New York TRACON
08:01PM 40.8000 -73.7167 111° Southeast 349 402 15,400 -1,140 Descending New York TRACON
08:02PM 40.7667 -73.6000 111° Southeast 325 374 14,400 -1,080 Descending New York TRACON
08:03PM 40.7500 -73.5000 102° East 308 354 13,300 -1,200 Descending New York TRACON
08:04PM 40.7500 -73.3833 90° East 315 362 12,000 -1,080 Descending New York TRACON
08:06PM 40.6757 -73.6507 250° West  Level Estimated
08:07PM 40.7833 -73.0667 250° West 288 331 9,100  Level New York TRACON
08:08PM 40.7500 -73.0833 201° Southwest 220 253 9,000 -720 Descending New York TRACON
08:09PM 40.7667 -73.1667 285° West 221 254 7,700 -1,020 Descending New York TRACON
08:10PM 40.7667 -73.2333 270° West 202 232 7,000 -360 Descending New York TRACON
08:11PM 40.7667 -73.3000 270° West 194 223 7,000  Level New York TRACON
08:12PM 40.7167 -73.3500 217° Southwest 193 222 7,000  Level New York TRACON
08:14PM 40.6167 -73.4167 207° Southwest 196 226 7,000  Level New York TRACON
08:15PM 40.5833 -73.4500 217° Southwest 194 223 7,000  Level New York TRACON
08:17PM 40.6310 -73.7273 283° West  Level Estimated
08:18PM 40.4167 -73.5167 283° West 204 235 7,000  Level New York TRACON
08:19PM 40.3667 -73.5333 194° South 214 246 7,000  Level New York TRACON